[[{"header":{"parameterUnit":"m.s-1","parameterCategory":1,"la1":30.2991,"la2":30.254,"lo1":-89.0895,"lo2":-89.0444,"dy":0.0017,"dx":0.0017,"nx":28,"ny":28,"refTime":"2024-08-17T21:00:00:Z","depth":0,"parameterNumber":2,"parameterNumberName":"U-component_of_WINDS"},"data":[0,0,0,0,0,0,0,0,0,0,0,0,0,0,0,0,0,0,0,0,0,0,0,0,0,0,0,0,0,0,0,0,0,0,0,0,0,0,0,0,0,0,0,0,0,0,0,0,0,0,0,0,0,0,0,0,0,0,2.5808,2.5808,0,2.5823,2.5823,2.5823,2.5786,2.5784,2.5783,2.5782,2.5796,2.5798,2.5799,0,0,0,0,0,0,0,0,0,0,0,0,0,2.5744,2.5746,2.5808,2.5808,2.5808,2.5823,2.5823,2.5823,2.5786,2.5784,2.5783,2.5782,2.5796,2.5798,2.5799,0,0,0,0,0,0,0,0,0,0,0,0,0,2.5767,2.5746,2.5808,2.5791,2.579,2.5823,2.5823,2.5823,2.5786,2.5784,2.5783,2.5781,2.5795,2.5798,2.58,2.5849,0,0,2.5806,2.5807,0,0,0,0,0,0,0,0,2.5766,2.5769,2.5794,2.5792,2.5791,2.58,2.5806,2.5832,2.5787,2.5788,2.5782,2.578,2.5799,2.5801,2.5808,2.5849,2.585,2.5807,2.5808,2.5809,2.581,0,0,0,0,0,0,0,2.5764,2.5768,2.5814,2.5794,2.5792,2.5782,2.5784,2.581,2.5803,2.5787,2.5785,2.5787,2.5798,2.5806,2.5808,2.585,2.5807,2.5809,2.581,2.5811,2.5929,2.593,0,0,0,0,0,0,2.5765,2.5767,2.5813,2.5814,2.5774,2.5785,2.5786,2.5799,2.5803,2.5801,2.5788,2.5785,2.5803,2.5805,2.5808,2.5862,2.5809,2.5811,2.5812,2.5927,2.5929,2.5931,0,0,0,0,0,0,2.5764,2.5769,2.5812,2.579,2.5795,2.5788,2.5803,2.58,2.5808,2.5803,2.5802,2.5797,2.5801,2.5805,2.5838,2.5863,2.5812,2.5814,2.5925,2.5928,2.593,2.5974,0,0,0,0,0,0,2.5762,2.5769,2.5788,2.5791,2.5796,2.5843,2.5804,2.5802,2.5812,2.5808,2.5812,2.581,2.58,2.5835,2.584,2.5865,2.5816,2.5923,2.5926,2.5929,2.597,2.5978,2.5984,0,0,0,0,0,2.576,2.5801,2.579,2.5795,2.582,2.5845,2.5848,2.5835,2.5814,2.5832,2.5829,2.581,2.586,2.5839,2.5844,2.587,2.5921,2.5925,2.5929,2.5967,2.5976,2.5984,0,0,0,0,0,0,2.5802,2.5801,2.5788,2.5831,2.5838,2.5838,2.5861,2.5846,2.5859,2.5855,2.5838,2.584,2.5875,2.5876,2.5853,2.5915,2.5886,2.5892,2.5913,2.5922,2.5929,2.5927,2.5818,0,0,0,0,0,2.5816,2.5837,2.5835,2.5873,2.5877,2.5869,2.5879,2.5869,2.5875,2.5878,2.5877,2.5884,2.59,2.5912,2.5927,2.5971,2.5969,2.5991,2.5998,2.6004,2.6008,2.6028,2.6036,2.5944,2.5944,2.5944,0,0,2.5846,2.5848,2.5862,2.5881,2.5885,2.5905,2.5871,2.5895,2.591,2.5881,2.5912,2.5912,2.5918,2.5955,2.5972,2.5957,2.6033,2.6009,2.6013,2.6014,2.6033,2.6041,2.6049,2.5947,2.5947,2.5946,0,0,2.591,2.5915,2.5945,2.5949,2.5956,2.595,2.5957,2.5959,2.5958,2.5988,2.5966,2.5983,2.6013,2.6017,2.6023,2.6086,2.6068,2.6092,2.6128,2.6147,2.6154,2.6161,2.618,2.6188,2.6096,2.6096,2.6097,0,2.5946,2.5976,2.5963,2.5987,2.5995,2.597,2.5999,2.6004,2.6016,2.6021,2.6005,2.6039,2.6042,2.6079,2.6094,2.6101,2.6107,2.609,2.6155,2.6161,2.6166,2.6185,2.6192,2.6099,2.6099,2.6098,2.6098,0,2.6018,2.6039,2.6063,2.6073,2.6084,2.6111,2.61,2.6113,2.6101,2.6097,2.6126,2.6128,2.6142,2.6151,2.614,2.6185,2.6175,2.6158,2.6127,2.6178,2.6195,2.6202,2.6103,2.6102,2.6101,2.61,0,0,2.6109,2.611,2.6118,2.6121,2.6126,2.6141,2.6166,2.6179,2.6189,2.6198,2.6216,2.6241,2.6223,2.623,2.622,2.6238,2.6284,2.6217,2.6217,2.6227,2.633,2.6341,2.635,2.6273,2.6274,2.6275,2.6328,0,2.6169,2.6211,2.6199,2.6241,2.6259,2.6235,2.6256,2.626,2.6256,2.627,2.6265,2.6282,2.6259,2.6262,2.6279,2.6275,2.6304,2.6271,2.6288,2.6289,2.6284,2.6359,2.6372,2.6422,2.6335,2.6336,2.6337,0,2.6245,2.6255,2.6298,2.6297,2.6304,2.6323,2.6333,2.6347,2.6351,2.6346,2.6353,2.6338,2.6361,2.6333,2.6363,2.634,2.6347,2.6346,2.6347,2.6346,2.6314,2.6358,2.6438,2.6445,2.6348,2.6347,2.6346,0,2.6303,2.6327,2.6355,2.6359,2.6359,2.6373,2.6373,2.6375,2.6383,2.6391,2.6396,2.6407,2.6413,2.6422,2.641,2.6391,2.644,2.6412,2.6435,2.6436,2.6445,2.6444,2.6525,2.6454,2.6454,2.6454,2.6454,0,2.637,2.6397,2.6381,2.6398,2.6426,2.6412,2.644,2.6438,2.6439,2.6455,2.6436,2.645,2.6435,2.6448,2.6439,2.6463,2.6467,2.6463,2.6459,2.6463,2.6463,2.6465,2.646,2.6456,2.6455,2.6455,2.6455,0,2.6438,2.6429,2.6458,2.6455,2.6454,2.6475,2.6472,2.6487,2.6481,2.6501,2.6505,2.6495,2.6509,2.6499,2.6513,2.6507,2.6538,2.6532,2.6537,2.6534,2.6557,2.6554,2.664,2.6649,2.6575,2.6576,2.6576,0,2.6481,2.65,2.6499,2.6507,2.6508,2.6523,2.653,2.6516,2.6524,2.6529,2.6543,2.6555,2.6564,2.6587,2.6581,2.6591,2.6583,2.6612,2.6584,2.6586,2.658,2.6578,2.6578,2.6617,2.6618,2.6619,2.662,0,2.6555,2.6549,2.656,2.6569,2.6578,2.6585,2.659,2.6598,2.6583,2.6593,2.6607,2.6613,2.6627,2.6638,2.6646,2.6646,2.663,2.6629,2.6634,2.6636,2.6637,2.6634,2.6549,2.6626,2.6626,2.6625,2.6625,2.6624,2.661,2.6625,2.6625,2.6637,2.6639,2.6644,2.6657,2.6652,2.6663,2.6672,2.6664,2.6679,2.668,2.6689,2.669,2.6702,2.6689,2.6698,2.67,2.6701,2.6703,2.6638,2.6703,2.6703,2.6703,2.6703,2.6703,0,2.668,2.6679,2.669,2.6697,2.6706,2.669,2.6695,2.6703,2.6717,2.6719,2.6728,2.6742,2.6752,2.6747,2.6756,2.6766,2.6758,2.6768,2.6766,2.6766,2.6715,2.6708,2.6774,2.6774,2.6774,2.6774,2.6774,2.6774,2.6718,2.6741,2.6735,2.6759,2.6757,2.6772,2.6775,2.6778,2.678,2.6796,2.6804,2.6801,2.68,2.6808,2.6816,2.6814,2.6817,2.6829,2.6825,2.6777,2.677,2.6763,2.6756,2.6831,2.6831,2.6874,2.6874,2.6874]},{"header":{"parameterUnit":"m.s-1","parameterCategory":1,"la1":30.2991,"la2":30.254,"lo1":-89.0895,"lo2":-89.0444,"dy":0.0017,"dx":0.0017,"nx":28,"ny":28,"refTime":"2024-08-17T21:00:00:Z","depth":0,"parameterNumber":3,"parameterNumberName":"V-component_of_WINDS"},"data":[0,0,0,0,0,0,0,0,0,0,0,0,0,0,0,0,0,0,0,0,0,0,0,0,0,0,0,0,0,0,0,0,0,0,0,0,0,0,0,0,0,0,0,0,0,0,0,0,0,0,0,0,0,0,0,0,0,0,4.442,4.442,0,4.4438,4.4438,4.4438,4.4361,4.4358,4.4356,4.4354,4.4371,4.4373,4.4376,0,0,0,0,0,0,0,0,0,0,0,0,0,4.4314,4.4317,4.4419,4.442,4.442,4.4438,4.4438,4.4438,4.4361,4.4358,4.4355,4.4353,4.437,4.4373,4.4376,0,0,0,0,0,0,0,0,0,0,0,0,0,4.4349,4.4317,4.4419,4.4384,4.4381,4.4438,4.4438,4.4438,4.4362,4.4358,4.4355,4.4352,4.4369,4.4373,4.4377,4.4469,0,0,4.4388,4.439,0,0,0,0,0,0,0,0,4.4347,4.4353,4.4389,4.4386,4.4383,4.4393,4.4407,4.4448,4.4362,4.4369,4.4354,4.435,4.4381,4.4384,4.4395,4.4469,4.447,4.4389,4.4391,4.4393,4.4394,0,0,0,0,0,0,0,4.4345,4.4352,4.4427,4.4389,4.4386,4.4365,4.4367,4.4415,4.4394,4.4368,4.4362,4.4366,4.4379,4.4391,4.4394,4.447,4.4389,4.4392,4.4394,4.4396,4.4619,4.4622,0,0,0,0,0,0,4.4348,4.435,4.4426,4.4427,4.4356,4.437,4.4371,4.4393,4.4393,4.439,4.4369,4.4362,4.4386,4.439,4.4395,4.45,4.4393,4.4396,4.4399,4.4615,4.462,4.4624,0,0,0,0,0,0,4.4346,4.4355,4.4425,4.4387,4.4395,4.4376,4.4401,4.4396,4.4408,4.4394,4.4389,4.4385,4.4384,4.4389,4.445,4.45,4.4398,4.4402,4.4611,4.4617,4.4622,4.4714,0,0,0,0,0,0,4.4343,4.4355,4.4391,4.4389,4.4397,4.4482,4.4404,4.4398,4.4415,4.4406,4.4408,4.4405,4.4381,4.4445,4.4454,4.4503,4.4405,4.4607,4.4614,4.462,4.4707,4.4722,4.4735,0,0,0,0,0,4.434,4.4416,4.4393,4.4402,4.4441,4.4485,4.449,4.4462,4.4419,4.4454,4.4445,4.4405,4.4494,4.4452,4.4462,4.4513,4.4603,4.4612,4.4619,4.47,4.4719,4.4735,0,0,0,0,0,0,4.4424,4.4415,4.4389,4.4468,4.4478,4.4472,4.4515,4.4483,4.4505,4.4496,4.4459,4.446,4.4527,4.4526,4.448,4.4601,4.4541,4.4551,4.4599,4.4617,4.4631,4.4629,4.4408,0,0,0,0,0,4.4452,4.4489,4.4479,4.4549,4.4555,4.4535,4.4553,4.453,4.4539,4.4542,4.4537,4.4547,4.4576,4.4597,4.4623,4.4706,4.4704,4.4746,4.4761,4.4772,4.4781,4.4823,4.4841,4.465,4.465,4.465,0,0,4.451,4.451,4.4535,4.4566,4.4571,4.4609,4.4539,4.4582,4.4609,4.4549,4.4606,4.4603,4.461,4.4682,4.4714,4.4683,4.4834,4.4783,4.4792,4.4795,4.4833,4.4851,4.4867,4.4656,4.4655,4.4654,0,0,4.4634,4.4639,4.4696,4.4703,4.4711,4.4696,4.471,4.4709,4.4705,4.4761,4.4716,4.4747,4.48,4.4807,4.4817,4.4942,4.4906,4.4952,4.5027,4.5068,4.5083,4.5096,4.5139,4.5155,4.4961,4.4962,4.4962,0,4.4705,4.4761,4.473,4.4776,4.479,4.4737,4.4794,4.4801,4.4818,4.4829,4.4795,4.4858,4.486,4.4931,4.4962,4.4973,4.4986,4.4951,4.5083,4.5096,4.5108,4.5148,4.5165,4.4967,4.4966,4.4966,4.4965,0,4.4846,4.4885,4.4931,4.4948,4.4967,4.5019,4.4994,4.5017,4.4993,4.4982,4.5039,4.5039,4.5064,4.5079,4.5056,4.5148,4.5128,4.509,4.5028,4.5132,4.5169,4.5185,4.4975,4.4973,4.4971,4.497,0,0,4.5024,4.5023,4.504,4.5046,4.5051,4.508,4.5128,4.5153,4.5172,4.5185,4.5224,4.5269,4.5232,4.5244,4.5221,4.5258,4.5354,4.5214,4.5213,4.5239,4.5453,4.5481,4.5499,4.5331,4.5334,4.5336,4.5451,0,4.5144,4.5227,4.52,4.5283,4.5318,4.5268,4.5309,4.5316,4.5307,4.5334,4.5323,4.5355,4.5306,4.5312,4.5346,4.5336,4.5397,4.5327,4.5365,4.5366,4.5363,4.5519,4.5549,4.5658,4.5466,4.5468,4.547,0,4.5296,4.5314,4.5401,4.5398,4.5412,4.545,4.5469,4.5496,4.5502,4.5493,4.5505,4.5474,4.552,4.546,4.5522,4.5475,4.5489,4.5486,4.5489,4.549,4.5424,4.5523,4.5692,4.5708,4.5493,4.5491,4.549,0,4.5415,4.5462,4.5519,4.5526,4.5524,4.5552,4.5553,4.5555,4.5571,4.5588,4.5597,4.5619,4.5631,4.5648,4.5623,4.5582,4.5688,4.5626,4.568,4.568,4.5703,4.5702,4.5876,4.5715,4.5715,4.5715,4.5714,0,4.5551,4.5605,4.5572,4.5607,4.5666,4.5634,4.5693,4.5688,4.5691,4.5723,4.5681,4.5712,4.5678,4.5706,4.5687,4.5739,4.5745,4.5738,4.5732,4.5741,4.5742,4.5748,4.5739,4.5719,4.5718,4.5717,4.5716,0,4.5693,4.5673,4.5732,4.5725,4.5725,4.5769,4.5762,4.5794,4.5781,4.5822,4.583,4.581,4.584,4.5817,4.5848,4.5834,4.5904,4.5888,4.5902,4.5897,4.5951,4.5945,4.6134,4.6156,4.5983,4.5985,4.5986,0,4.5781,4.5821,4.5819,4.5837,4.584,4.5871,4.5887,4.5856,4.5874,4.5883,4.5913,4.594,4.596,4.601,4.5998,4.602,4.6003,4.6068,4.6006,4.6013,4.6002,4.5999,4.6002,4.608,4.6082,4.6084,4.6085,0,4.5937,4.5925,4.5949,4.597,4.5989,4.6004,4.6015,4.6033,4.6002,4.6024,4.6054,4.6069,4.6099,4.6126,4.6143,4.6143,4.6109,4.6105,4.6118,4.6126,4.6132,4.6128,4.5934,4.61,4.6098,4.6097,4.6097,4.6096,4.6054,4.6086,4.6089,4.6117,4.6122,4.6133,4.6162,4.6153,4.6177,4.6199,4.618,4.6216,4.6219,4.6239,4.6243,4.627,4.6243,4.6263,4.6268,4.6272,4.6279,4.6129,4.6273,4.6273,4.6272,4.6272,4.6272,0,4.6206,4.6205,4.6231,4.6248,4.6269,4.6235,4.6246,4.6266,4.6298,4.6304,4.6324,4.6358,4.6383,4.6372,4.6394,4.6418,4.6402,4.6424,4.6421,4.6421,4.6303,4.6288,4.6436,4.6436,4.6436,4.6436,4.6436,4.6436,4.6288,4.6341,4.6329,4.6384,4.6382,4.6417,4.6425,4.6435,4.6439,4.6479,4.65,4.6493,4.6491,4.6513,4.6534,4.653,4.6539,4.6566,4.6557,4.6446,4.643,4.6414,4.64,4.6569,4.6569,4.6673,4.6674,4.6674]}]]